This is the latest recevied weather packets stored in our database for station/object K9RCP-20. If no packets are shown the sender has not sent any weather packets the latest 10 day(s).
| Time | Temp. | Humidity | Pressure | Rain* | Wind** | Luminosity | Snow |
|---|---|---|---|---|---|---|---|
| 1778175452 | 15.56° C | 62% | 1017.9 hPa | 0 mm | - | 564 W/m² | - |
| 1778175149 | 15° C | 63% | 1018.2 hPa | 0 mm | - | 580 W/m² | - |
| 1778174845 | 15.56° C | 62% | 1018.2 hPa | 0 mm | - | 473 W/m² | - |
| 1778174543 | 15.56° C | 62% | 1018.2 hPa | 0 mm | - | 345 W/m² | - |
| 1778174242 | 15° C | 64% | 1018.4 hPa | 0 mm | - | 354 W/m² | - |
| 1778173940 | 15° C | 64% | 1018.3 hPa | 0 mm | - | 366 W/m² | - |
| 1778173637 | 15° C | 64% | 1018.3 hPa | 0 mm | - | 582 W/m² | - |
| 1778173334 | 13.89° C | 65% | 1018.4 hPa | 0 mm | - | 386 W/m² | - |
| 1778173029 | 13.89° C | 67% | 1018.2 hPa | 0 mm | - | 330 W/m² | - |
| 1778172726 | 14.44° C | 66% | 1018.3 hPa | 0 mm | - | 302 W/m² | - |
| 1778172422 | 13.89° C | 65% | 1018.2 hPa | 0 mm | - | 490 W/m² | - |
| 1778172119 | 13.89° C | 66% | 1018.3 hPa | 0 mm | - | 311 W/m² | - |
| 1778171816 | 13.33° C | 67% | 1018.3 hPa | 0 mm | - | 262 W/m² | - |
| 1778171514 | 13.33° C | 68% | 1018.3 hPa | 0 mm | - | 270 W/m² | - |
| 1778171210 | 13.33° C | 67% | 1018.3 hPa | 0 mm | - | 242 W/m² | - |
| 1778170906 | 12.78° C | 68% | 1018.4 hPa | 0 mm | - | 225 W/m² | - |
| 1778170602 | 12.78° C | 69% | 1018.5 hPa | 0 mm | - | 243 W/m² | - |
| 1778170299 | 13.33° C | 68% | 1018.4 hPa | 0 mm | - | 270 W/m² | - |
| 1778169996 | 13.33° C | 68% | 1018.4 hPa | 0 mm | - | 225 W/m² | - |
| 1778169692 | 13.33° C | 68% | 1018.5 hPa | 0 mm | - | 223 W/m² | - |
| 1778169388 | 12.78° C | 69% | 1018.3 hPa | 0 mm | - | 197 W/m² | - |
| 1778169085 | 12.78° C | 69% | 1018.2 hPa | 0 mm | - | 212 W/m² | - |
| 1778168781 | 12.78° C | 69% | 1018.3 hPa | 0 mm | - | 199 W/m² | - |
| 1778168479 | 12.78° C | 69% | 1018.2 hPa | 0 mm | - | 197 W/m² | - |
| 1778168175 | 12.78° C | 69% | 1018.1 hPa | 0 mm | - | 182 W/m² | - |
* Rain latest hour (hover to see other rain measurements)
** Current wind speed in m/s (hover to see current wind gust speed)